When you browse on this site, cookies collect data to enhance your experience and personalize the content and advertising you see.
Visit our Privacy Policy to learn more. By continuing to use the site, you agree to this use of cookies and data.
  • în România
  • Lista ţărilor
  • Pe 7 zile
  • Temperatura apei
  • Hartă satelitară
  • Meteo pe hartă
  • Widget-uri
  • user-avatar
    Intrare

    Meteo pe oră la Muravino

    Astăzi, 26 Aprilie, Vineri

    Timp Temperatura Precipitaţii Vânt Presiune Umiditate
    00:00 +9°C° 0 mm 2 m/s 753 mmHg 72%
    01:00 +8°C° 0 mm 2 m/s 753 mmHg 74%
    02:00 +7°C° 0 mm 2 m/s 753 mmHg 77%
    03:00 +7°C° 0 mm 2 m/s 753 mmHg 77%
    04:00 +7°C° 0 mm 2 m/s 753 mmHg 78%
    05:00 +7°C° 0 mm 2 m/s 753 mmHg 79%
    06:00 +9°C° 0 mm 2 m/s 753 mmHg 73%
    07:00 +10°C° 0 mm 2 m/s 753 mmHg 66%
    08:00 +13°C° 0 mm 2 m/s 753 mmHg 60%
    09:00 +15°C° 0 mm 2 m/s 753 mmHg 55%
    10:00 +16°C° 0 mm 2 m/s 753 mmHg 51%
    11:00 +17°C° 0 mm 2 m/s 753 mmHg 46%
    12:00 +18°C° 0 mm 2 m/s 752 mmHg 44%
    13:00 +19°C° 0 mm 2 m/s 752 mmHg 43%
    14:00 +21°C° 0 mm 1 m/s 752 mmHg 41%
    15:00 +20°C° 0 mm 1 m/s 751 mmHg 42%
    16:00 +20°C° 0 mm 1 m/s 751 mmHg 43%
    17:00 +20°C° 0 mm 1 m/s 750 mmHg 45%
    18:00 +18°C° 0 mm 1 m/s 750 mmHg 52%
    19:00 +14°C° 0 mm 2 m/s 749 mmHg 59%
    20:00 +12°C° 0 mm 2 m/s 749 mmHg 66%
    21:00 +12°C° 0 mm 2 m/s 749 mmHg 67%
    22:00 +10°C° 0 mm 2 m/s 749 mmHg 68%
    23:00 +10°C° 0 mm 2 m/s 748 mmHg 70%

    Mâine, 27 Aprilie, Sâmbătă

    Timp Temperatura Precipitaţii Vânt Presiune Umiditate
    00:00 +10°C° 0.1 mm 2 m/s 748 mmHg 72%
    01:00 +12°C° 0.1 mm 2 m/s 748 mmHg 74%
    02:00 +12°C° 0.1 mm 2 m/s 747 mmHg 76%
    03:00 +12°C° 0 mm 2 m/s 747 mmHg 77%
    04:00 +12°C° 0 mm 2 m/s 746 mmHg 79%
    05:00 +12°C° 0 mm 2 m/s 746 mmHg 80%
    06:00 +13°C° 0 mm 2 m/s 746 mmHg 75%
    07:00 +15°C° 0 mm 2 m/s 745 mmHg 71%
    08:00 +16°C° 0 mm 2 m/s 745 mmHg 66%
    09:00 +17°C° 0.1 mm 2 m/s 745 mmHg 63%
    10:00 +17°C° 0.1 mm 2 m/s 744 mmHg 59%
    11:00 +18°C° 0.1 mm 2 m/s 744 mmHg 55%
    12:00 +19°C° 0.1 mm 2 m/s 743 mmHg 50%
    13:00 +20°C° 0.1 mm 2 m/s 743 mmHg 46%
    14:00 +21°C° 0.1 mm 2 m/s 742 mmHg 42%
    15:00 +19°C° 0.4 mm 3 m/s 742 mmHg 52%
    16:00 +17°C° 0.4 mm 4 m/s 742 mmHg 62%
    17:00 +14°C° 0.4 mm 4 m/s 742 mmHg 72%
    18:00 +13°C° 0.4 mm 4 m/s 742 mmHg 76%
    19:00 +12°C° 0.4 mm 4 m/s 742 mmHg 80%
    20:00 +10°C° 0.4 mm 4 m/s 743 mmHg 84%
    21:00 +8°C° 0.1 mm 4 m/s 743 mmHg 81%
    22:00 +7°C° 0.1 mm 5 m/s 744 mmHg 78%
    23:00 +5°C° 0.1 mm 5 m/s 745 mmHg 75%

    Poimâine, 28 Aprilie, Duminică

    Timp Temperatura Precipitaţii Vânt Presiune Umiditate
    00:00 +3°C° 0 mm 5 m/s 745 mmHg 75%
    01:00 +1°C° 0 mm 5 m/s 746 mmHg 75%
    02:00 0°C° 0 mm 5 m/s 747 mmHg 75%
    03:00 -1°C° 0 mm 5 m/s 747 mmHg 73%
    04:00 -2°C° 0 mm 5 m/s 748 mmHg 71%
    05:00 -2°C° 0 mm 5 m/s 748 mmHg 69%
    06:00 -2°C° 0 mm 5 m/s 749 mmHg 64%
    07:00 -1°C° 0 mm 5 m/s 749 mmHg 58%
    08:00 0°C° 0 mm 5 m/s 750 mmHg 53%
    09:00 +1°C° 0 mm 5 m/s 750 mmHg 49%
    10:00 +2°C° 0 mm 5 m/s 750 mmHg 45%
    11:00 +3°C° 0 mm 5 m/s 751 mmHg 40%
    12:00 +5°C° 0 mm 5 m/s 751 mmHg 39%
    13:00 +5°C° 0 mm 5 m/s 751 mmHg 37%
    14:00 +6°C° 0 mm 5 m/s 751 mmHg 35%
    15:00 +6°C° 0 mm 4 m/s 751 mmHg 36%
    16:00 +5°C° 0 mm 4 m/s 752 mmHg 36%
    17:00 +5°C° 0 mm 4 m/s 752 mmHg 37%
    18:00 +4°C° 0 mm 4 m/s 752 mmHg 42%
    19:00 +2°C° 0 mm 3 m/s 753 mmHg 47%
    20:00 +2°C° 0 mm 2 m/s 753 mmHg 52%
    21:00 +1°C° 0 mm 2 m/s 754 mmHg 54%
    22:00 -1°C° 0 mm 2 m/s 754 mmHg 57%
    23:00 -1°C° 0 mm 2 m/s 754 mmHg 59%

    29 Aprilie, Luni

    Timp Temperatura Precipitaţii Vânt Presiune Umiditate
    00:00 -2°C° 0 mm 2 m/s 755 mmHg 61%
    01:00 -2°C° 0 mm 2 m/s 755 mmHg 62%
    02:00 -3°C° 0 mm 2 m/s 755 mmHg 64%
    03:00 -3°C° 0 mm 2 m/s 755 mmHg 62%
    04:00 -2°C° 0 mm 2 m/s 755 mmHg 60%
    05:00 -2°C° 0 mm 2 m/s 756 mmHg 58%
    06:00 -1°C° 0 mm 2 m/s 756 mmHg 51%
    07:00 +2°C° 0 mm 2 m/s 756 mmHg 45%
    08:00 +3°C° 0 mm 2 m/s 756 mmHg 38%
    09:00 +4°C° 0 mm 2 m/s 756 mmHg 36%
    10:00 +5°C° 0 mm 2 m/s 755 mmHg 33%
    11:00 +7°C° 0 mm 2 m/s 755 mmHg 31%
    12:00 +7°C° 0 mm 2 m/s 755 mmHg 30%
    13:00 +8°C° 0 mm 2 m/s 754 mmHg 30%
    14:00 +9°C° 0 mm 1 m/s 754 mmHg 29%
    15:00 +9°C° 0 mm 1 m/s 753 mmHg 30%
    16:00 +9°C° 0 mm 1 m/s 753 mmHg 31%
    17:00 +8°C° 0 mm 1 m/s 752 mmHg 31%
    18:00 +7°C° 0 mm 1 m/s 752 mmHg 38%
    19:00 +5°C° 0 mm 1 m/s 752 mmHg 44%
    20:00 +3°C° 0 mm 1 m/s 752 mmHg 51%
    21:00 +2°C° 0 mm 2 m/s 752 mmHg 53%
    22:00 +1°C° 0 mm 2 m/s 752 mmHg 55%
    23:00 +1°C° 0 mm 2 m/s 751 mmHg 57%

    30 Aprilie, Marţi

    Timp Temperatura Precipitaţii Vânt Presiune Umiditate
    00:00 +1°C° 0 mm 2 m/s 751 mmHg 58%
    01:00 +1°C° 0 mm 2 m/s 751 mmHg 60%
    02:00 -1°C° 0 mm 2 m/s 751 mmHg 61%
    03:00 +1°C° 0 mm 2 m/s 750 mmHg 61%
    04:00 +1°C° 0 mm 2 m/s 750 mmHg 61%
    05:00 +1°C° 0 mm 2 m/s 750 mmHg 60%
    06:00 +3°C° 0 mm 2 m/s 749 mmHg 55%
    07:00 +5°C° 0 mm 2 m/s 749 mmHg 49%
    08:00 +6°C° 0 mm 2 m/s 749 mmHg 44%
    09:00 +7°C° 0 mm 2 m/s 748 mmHg 40%
    10:00 +9°C° 0 mm 3 m/s 748 mmHg 36%
    11:00 +10°C° 0 mm 3 m/s 747 mmHg 32%
    12:00 +10°C° 0 mm 3 m/s 747 mmHg 32%
    13:00 +11°C° 0 mm 3 m/s 746 mmHg 32%
    14:00 +11°C° 0 mm 3 m/s 746 mmHg 32%
    15:00 +10°C° 0 mm 3 m/s 746 mmHg 37%
    16:00 +10°C° 0 mm 3 m/s 745 mmHg 42%
    17:00 +9°C° 0 mm 3 m/s 745 mmHg 46%
    18:00 +8°C° 0.2 mm 3 m/s 745 mmHg 57%
    19:00 +6°C° 0.2 mm 2 m/s 745 mmHg 68%
    20:00 +5°C° 0.2 mm 2 m/s 745 mmHg 79%
    21:00 +5°C° 0.5 mm 2 m/s 745 mmHg 81%
    22:00 +4°C° 0.5 mm 2 m/s 745 mmHg 83%
    23:00 +4°C° 0.5 mm 2 m/s 745 mmHg 85%

    1 Mai, Miercuri

    Timp Temperatura Precipitaţii Vânt Presiune Umiditate
    00:00 +3°C° 0.1 mm 2 m/s 745 mmHg 86%
    01:00 +3°C° 0.1 mm 2 m/s 745 mmHg 87%
    02:00 +1°C° 0.1 mm 3 m/s 745 mmHg 88%
    03:00 +1°C° 0 mm 3 m/s 745 mmHg 89%
    04:00 0°C° 0 mm 3 m/s 745 mmHg 90%
    05:00 0°C° 0 mm 3 m/s 745 mmHg 91%
    06:00 +1°C° 0 mm 3 m/s 745 mmHg 85%
    07:00 +2°C° 0 mm 3 m/s 745 mmHg 78%
    08:00 +3°C° 0 mm 3 m/s 745 mmHg 72%
    09:00 +5°C° 0 mm 2 m/s 745 mmHg 63%
    10:00 +7°C° 0 mm 2 m/s 745 mmHg 55%
    11:00 +8°C° 0 mm 2 m/s 744 mmHg 46%
    12:00 +10°C° 0 mm 1 m/s 744 mmHg 43%
    13:00 +11°C° 0 mm 1 m/s 744 mmHg 39%
    14:00 +12°C° 0 mm 1 m/s 743 mmHg 35%
    15:00 +12°C° 0 mm 1 m/s 743 mmHg 36%
    16:00 +10°C° 0 mm 0 m/s 742 mmHg 37%
    17:00 +9°C° 0 mm 0 m/s 742 mmHg 37%
    18:00 +9°C° 0 mm 1 m/s 742 mmHg 45%
    19:00 +7°C° 0 mm 1 m/s 741 mmHg 53%
    20:00 +4°C° 0 mm 2 m/s 741 mmHg 61%
    21:00 +4°C° 0 mm 2 m/s 741 mmHg 65%
    22:00 +3°C° 0 mm 2 m/s 741 mmHg 69%
    23:00 +3°C° 0 mm 2 m/s 740 mmHg 74%
    Arată mai mult